Regional Weather Roundup
Issued by NWS Sioux Falls, SD

Home | Current Version | Previous Version | Text Only | Print | Product List | Glossary On
Versions: 1 2 3 4 5 6 7 8 9 10 11 12 13 14 15 16 17 18 19 20 21 22 23 24 25 26 27 28 29 30 31 32 33 34 35 36 37 38 39 40 41 42 43 44 45 46 47 48 49 50
000
ASUS43 KFSD 200402
RWRFSD

WEATHER ROUNDUP FOR SE SOUTH DAKOTA/SW MINNESOTA/NW IOWA
NATIONAL WEATHER SERVICE SIOUX FALLS SD
1100 PM CDT TUE AUG 19 2014

NOTE: "FAIR" INDICATES FEW OR NO CLOUDS BELOW 12,000 FEET WITH NO
SIGNIFICANT WEATHER AND OR OBSTRUCTIONS TO VISIBILITY.


SDZ038>040-050-052>070-200500-
SOUTHEAST SOUTH DAKOTA

CITY           SKY/WX    TMP DP  RH WIND       PRES   REMARKS
CHAMBERLAIN    MOCLDY    71  64  80 SE10      29.77S
HURON          PTCLDY    70  62  76 SE6       29.77S
MADISON        FAIR      66  66 100 S5        29.83S
MITCHELL       PTCLDY    70  64  81 SE7       29.78F
SIOUX FALLS    MOCLDY    73  63  70 S3        29.82S
WINNER         FAIR      75  64  68 SE13      29.78R
YANKTON        MOCLDY    70  64  83 E7        29.79F
$$

MNZ071-072-080-081-089-090-097-098-200500-
SOUTHWEST MINNESOTA

CITY           SKY/WX    TMP DP  RH WIND       PRES   REMARKS
FAIRMONT       CLEAR     68  59  73 CALM      29.82R
JACKSON        CLEAR     66  63  88 CALM      29.85R
LUVERNE        PTCLDY    68  64  88 CALM      29.84S
MARSHALL       CLEAR     68  63  83 SW3       29.81R
MONTEVIDEO     CLEAR     68  64  88 CALM      29.81R
PIPESTONE      PTCLDY    68  64  88 CALM      29.84S
REDWOOD FALLS  CLEAR     70  64  81 CALM      29.80R
TRACY          CLEAR     70  65  86 CALM      29.83R
WINDOM         CLEAR     68  64  88 CALM      29.83S
WORTHINGTON    CLEAR     66  10  11 SW5       29.85S
$$

IAZ001>003-012>014-020>022-031-032-NEZ013-014-SDZ071-200500-
NORTHWEST IOWA

CITY           SKY/WX    TMP DP  RH WIND       PRES   REMARKS
CHEROKEE       CLEAR     65  65  99 CALM      29.84R
DENISON        CLEAR     70  66  88 CALM      29.81S
ESTHERVILLE    CLEAR     66  63  90 CALM      29.83R
LE MARS        CLEAR     68  66  94 CALM      29.83R
ORANGE CITY    CLEAR     73  63  68 CALM      29.83F
SHELDON        PTCLDY    64  64 100 CALM      29.83S
SIOUX CITY     PTCLDY    72  66  81 E6        29.80S
SPENCER        CLEAR     67  64  90 SW3       29.84R
STORM LAKE     CLEAR     70  68  94 SW5       29.85R
$$

ABBREVIATIONS USED IN REMARKS
   TC - TEMPERATURE IN CELSIUS
  WCI - WIND CHILL INDEX
   HX - HEAT INDEX
  VSB - VISIBILITY




USA.gov is the U.S. government's official web portal to all federal, state and local government web resources and services.